TimeEDT,TemperatureF,Dew PointF,Humidity,Sea Level PressureIn,VisibilityMPH,Wind Direction,Wind SpeedMPH,Gust SpeedMPH,PrecipitationIn,Events,Conditions,WindDirDegrees,DateUTC
12:15 AM,59.7,51.8,75,29.50,10.0,SW,12.7,23.0,0.01,Rain,Light Rain,220,2012-10-18 04:15:00
12:35 AM,58.1,52.3,81,29.49,7.0,SSW,16.1,27.6,0.03,Rain,Rain,200,2012-10-18 04:35:00
12:55 AM,57.4,52.9,85,29.47,10.0,South,10.4,19.6,0.06,Rain,Light Rain,190,2012-10-18 04:55:00
1:15 AM,57.2,53.1,86,29.46,7.0,South,10.4,-,0.03,Rain,Rain,190,2012-10-18 05:15:00
1:35 AM,57.2,53.1,86,29.46,7.0,South,19.6,26.5,0.07,Rain,Light Rain,190,2012-10-18 05:35:00
1:55 AM,56.7,52.7,87,29.46,7.0,South,15.0,21.9,0.10,Rain,Light Rain,180,2012-10-18 05:55:00
2:15 AM,56.5,52.3,86,29.46,10.0,South,15.0,20.7,0.01,Rain,Light Rain,180,2012-10-18 06:15:00
2:35 AM,56.5,52.3,86,29.46,7.0,South,13.8,20.7,0.03,Rain,Light Rain,190,2012-10-18 06:35:00
2:55 AM,56.3,52.3,87,29.43,10.0,South,11.5,-,0.04,Rain,Light Rain,170,2012-10-18 06:55:00
3:15 AM,56.3,52.5,87,29.44,10.0,South,10.4,19.6,N/A,,Light Drizzle,190,2012-10-18 07:15:00
3:35 AM,56.3,52.2,86,29.42,10.0,South,11.5,21.9,N/A,,Overcast,190,2012-10-18 07:35:00
3:55 AM,56.3,52.2,86,29.42,10.0,South,8.1,-,N/A,Rain,Rain,190,2012-10-18 07:55:00
4:15 AM,52.5,48.0,85,29.44,7.0,West,13.8,29.9,0.02,Rain,Light Rain,280,2012-10-18 08:15:00
4:35 AM,51.1,46.9,86,29.44,7.0,West,10.4,18.4,0.04,Rain,Light Rain,270,2012-10-18 08:35:00
4:55 AM,50.9,46.8,86,29.45,10.0,West,10.4,-,0.10,Rain,Light Rain,260,2012-10-18 08:55:00
5:15 AM,50.9,46.9,86,29.46,10.0,WSW,10.4,16.1,N/A,Rain,Rain,250,2012-10-18 09:15:00
5:35 AM,50.9,47.1,87,29.49,7.0,WSW,8.1,-,0.02,Rain,Rain,240,2012-10-18 09:35:00
5:55 AM,50.5,46.9,87,29.49,10.0,WSW,10.4,-,0.05,Rain,Light Rain,250,2012-10-18 09:55:00
6:15 AM,50.4,46.6,87,29.49,10.0,WSW,9.2,-,N/A,,Overcast,240,2012-10-18 10:15:00
6:35 AM,50.0,45.9,86,29.51,10.0,WSW,9.2,-,N/A,,Scattered Clouds,240,2012-10-18 10:35:00
6:55 AM,50.0,45.5,85,29.51,10.0,WSW,10.4,16.1,N/A,,Clear,250,2012-10-18 10:55:00
7:35 AM,49.5,43.7,81,29.53,10.0,WSW,12.7,24.2,N/A,,Overcast,250,2012-10-18 11:35:00
7:55 AM,48.2,42.6,81,29.54,10.0,WSW,9.2,-,N/A,,Scattered Clouds,240,2012-10-18 11:55:00
8:15 AM,47.5,42.3,82,29.54,10.0,SW,8.1,-,N/A,,Clear,230,2012-10-18 12:15:00
8:35 AM,47.7,41.9,80,29.55,10.0,WSW,9.2,-,N/A,,Clear,240,2012-10-18 12:35:00
8:55 AM,48.2,41.5,78,29.56,10.0,SW,10.4,-,N/A,,Clear,230,2012-10-18 12:55:00
9:15 AM,48.7,41.4,76,29.56,10.0,SW,10.4,-,N/A,,Clear,230,2012-10-18 13:15:00
9:35 AM,49.5,41.2,73,29.57,10.0,SW,9.2,-,N/A,,Clear,220,2012-10-18 13:35:00
9:55 AM,50.4,41.0,70,29.57,10.0,SSW,10.4,16.1,N/A,,Clear,210,2012-10-18 13:55:00
10:15 AM,51.8,40.3,65,29.58,10.0,SW,12.7,16.1,N/A,,Clear,230,2012-10-18 14:15:00
10:35 AM,52.7,40.5,63,29.58,10.0,SSW,13.8,18.4,N/A,,Clear,210,2012-10-18 14:35:00
10:55 AM,52.5,39.9,62,29.58,10.0,SSW,10.4,18.4,N/A,,Clear,200,2012-10-18 14:55:00
11:15 AM,53.8,41.2,62,29.58,10.0,South,10.4,-,N/A,,Clear,190,2012-10-18 15:15:00
11:35 AM,55.9,40.5,56,29.58,10.0,South,12.7,18.4,N/A,,Clear,190,2012-10-18 15:35:00
11:55 AM,56.8,37.9,49,29.59,10.0,SSW,16.1,26.5,N/A,,Clear,200,2012-10-18 15:55:00
12:15 PM,57.4,38.3,49,29.59,10.0,SSW,16.1,20.7,N/A,,Clear,200,2012-10-18 16:15:00
12:35 PM,58.5,38.8,48,29.58,10.0,SSW,16.1,23.0,N/A,,Clear,200,2012-10-18 16:35:00
12:55 PM,59.5,37.8,44,29.58,10.0,SSW,15.0,26.5,N/A,,Clear,200,2012-10-18 16:55:00
1:15 PM,60.3,35.1,39,29.58,10.0,SSW,13.8,29.9,N/A,,Clear,210,2012-10-18 17:15:00
1:35 PM,60.8,32.9,35,29.58,10.0,SW,16.1,33.4,N/A,,Scattered Clouds,220,2012-10-18 17:35:00
1:55 PM,61.3,31.1,32,29.57,10.0,SW,19.6,33.4,N/A,,Scattered Clouds,220,2012-10-18 17:55:00
2:15 PM,60.1,30.2,32,29.56,10.0,SW,20.7,33.4,N/A,,Scattered Clouds,230,2012-10-18 18:15:00
2:35 PM,62.6,30.4,30,29.56,10.0,SW,19.6,26.5,N/A,,Scattered Clouds,230,2012-10-18 18:35:00
2:55 PM,61.5,27.1,27,29.56,10.0,SW,25.3,32.2,N/A,,Scattered Clouds,230,2012-10-18 18:55:00
3:15 PM,61.5,28.0,28,29.56,10.0,WSW,23.0,31.1,N/A,,Scattered Clouds,240,2012-10-18 19:15:00
3:35 PM,62.2,27.5,27,29.56,10.0,SW,17.3,33.4,N/A,,Scattered Clouds,220,2012-10-18 19:35:00
3:55 PM,61.7,29.1,29,29.56,10.0,SW,15.0,26.5,N/A,,Scattered Clouds,220,2012-10-18 19:55:00
4:15 PM,59.9,28.0,30,29.57,10.0,SSW,16.1,25.3,N/A,,Mostly Cloudy,210,2012-10-18 20:15:00
4:35 PM,59.9,26.4,28,29.57,10.0,SW,13.8,27.6,N/A,,Mostly Cloudy,230,2012-10-18 20:35:00
4:55 PM,59.0,25.7,28,29.57,10.0,WSW,20.7,27.6,N/A,,Scattered Clouds,240,2012-10-18 20:55:00
5:15 PM,59.5,25.3,27,29.57,10.0,SW,18.4,27.6,N/A,,Scattered Clouds,230,2012-10-18 21:15:00
5:35 PM,59.2,25.0,27,29.58,10.0,SW,19.6,27.6,N/A,,Scattered Clouds,220,2012-10-18 21:35:00
5:55 PM,58.3,26.6,30,29.59,10.0,SW,12.7,20.7,N/A,,Scattered Clouds,230,2012-10-18 21:55:00
6:15 PM,57.9,27.1,31,29.60,10.0,SW,12.7,20.7,N/A,,Scattered Clouds,220,2012-10-18 22:15:00
6:35 PM,56.8,27.5,33,29.60,10.0,SW,9.2,-,N/A,,Scattered Clouds,230,2012-10-18 22:35:00
6:55 PM,56.1,28.4,35,29.61,10.0,WSW,9.2,-,N/A,,Mostly Cloudy,240,2012-10-18 22:55:00
7:15 PM,55.6,29.1,36,29.62,10.0,SW,6.9,-,N/A,,Overcast,230,2012-10-18 23:15:00
7:35 PM,54.9,29.8,38,29.62,10.0,SW,6.9,-,N/A,,Overcast,230,2012-10-18 23:35:00
7:55 PM,55.2,29.1,37,29.62,10.0,SW,9.2,-,N/A,,Overcast,230,2012-10-18 23:55:00
8:15 PM,54.9,29.5,38,29.63,10.0,SW,8.1,-,N/A,,Overcast,230,2012-10-19 00:15:00
8:35 PM,55.6,28.6,36,29.64,10.0,WSW,15.0,26.5,N/A,,Overcast,250,2012-10-19 00:35:00
8:55 PM,55.8,28.6,35,29.63,10.0,WSW,8.1,18.4,N/A,,Overcast,240,2012-10-19 00:55:00
9:15 PM,55.6,28.8,36,29.63,10.0,SW,10.4,17.3,N/A,,Overcast,220,2012-10-19 01:15:00
9:35 PM,55.4,29.1,37,29.63,10.0,SSW,6.9,-,N/A,,Overcast,210,2012-10-19 01:35:00
10:15 PM,50.0,36.9,61,29.64,10.0,WNW,5.8,-,N/A,,Overcast,290,2012-10-19 02:15:00
10:35 PM,48.9,37.4,64,29.64,10.0,WNW,4.6,-,N/A,,Overcast,300,2012-10-19 02:35:00
10:55 PM,48.6,37.6,66,29.63,10.0,Calm,Calm,-,N/A,,Overcast,0,2012-10-19 02:55:00
11:15 PM,47.8,37.9,69,29.62,10.0,Calm,Calm,-,N/A,,Overcast,0,2012-10-19 03:15:00
11:35 PM,46.6,38.7,74,29.62,10.0,Calm,Calm,-,N/A,,Overcast,0,2012-10-19 03:35:00
11:55 PM,46.4,39.0,75,29.62,10.0,Calm,Calm,-,N/A,,Overcast,0,2012-10-19 03:55:00